Location: Ambatotampy
(18.8181°S, 47.6186°E)
Time: 23:24:33
(UTC+00:00)

deb Chang Zheng 4 - Pass Details

Date: 21 January 2021
Orbit: 600 x 623 km, 98.6° (Epoch: 24 February)

Event Time Altitude Azimuth Distance (km) Brightness Sun altitude
Rises 01:18:03 0° 16° (NNE) 2,829 6.8 -16.0°
Reaches altitude 10° 01:20:12 10° 17° (NNE) 1,933 6.0 -15.6°
Maximum altitude 01:24:23 78° 102° (ESE) 621 3.6 -14.7°
Drops below altitude 10° 01:28:39 10° 189° (S) 1,962 6.4 -13.8°
Sets 01:30:50 0° 190° (S) 2,874 7.2 -13.3°
